TimeCDT,TemperatureF,Dew PointF,Humidity,Sea Level PressureIn,VisibilityMPH,Wind Direction,Wind SpeedMPH,Gust SpeedMPH,PrecipitationIn,Events,Conditions,WindDirDegrees,DateUTC
12:33 AM,37.4,37.4,100,29.85,10.0,East,10.4,-,N/A,,Overcast,90,2013-04-18 05:33:00
12:55 AM,38.5,38.1,99,29.83,10.0,East,12.7,-,0.03,,Overcast,90,2013-04-18 05:55:00
12:59 AM,39.2,37.4,93,29.82,10.0,East,13.8,-,N/A,Rain,Light Rain,80,2013-04-18 05:59:00
1:23 AM,39.2,39.2,100,29.78,10.0,East,10.4,-,N/A,,Overcast,100,2013-04-18 06:23:00
1:55 AM,39.0,38.8,99,29.72,10.0,East,13.8,-,0.00,,Overcast,90,2013-04-18 06:55:00
2:12 AM,39.2,39.2,100,29.75,10.0,NNE,4.6,-,N/A,,Overcast,30,2013-04-18 07:12:00
2:18 AM,39.2,39.2,100,29.74,10.0,ENE,8.1,-,N/A,,Overcast,70,2013-04-18 07:18:00
2:55 AM,39.7,39.6,99,29.72,10.0,East,6.9,-,N/A,,Overcast,90,2013-04-18 07:55:00
2:57 AM,39.2,39.2,100,29.72,10.0,East,6.9,-,N/A,,Overcast,90,2013-04-18 07:57:00
3:55 AM,39.7,39.4,99,29.72,10.0,NE,5.8,-,N/A,,Overcast,40,2013-04-18 08:55:00
4:55 AM,39.0,38.8,99,29.67,5.0,ENE,9.2,-,N/A,,Overcast,60,2013-04-18 09:55:00
5:31 AM,39.2,39.2,100,29.67,2.5,NNE,6.9,-,N/A,,Overcast,20,2013-04-18 10:31:00
5:35 AM,39.2,39.2,100,29.66,2.0,NNE,6.9,-,N/A,,Overcast,20,2013-04-18 10:35:00
5:38 AM,39.2,37.4,93,29.66,1.8,North,8.1,-,N/A,,Overcast,10,2013-04-18 10:38:00
5:42 AM,39.2,37.4,93,29.66,1.5,North,8.1,-,N/A,,Overcast,10,2013-04-18 10:42:00
5:49 AM,37.4,37.4,100,29.65,1.8,NNE,9.2,-,N/A,,Overcast,30,2013-04-18 10:49:00
5:53 AM,37.4,37.4,100,29.65,2.0,NNE,8.1,-,N/A,,Overcast,30,2013-04-18 10:53:00
5:55 AM,38.1,37.8,99,29.65,2.0,NNE,6.9,-,N/A,,Overcast,30,2013-04-18 10:55:00
5:57 AM,37.4,37.4,100,29.65,2.5,NE,5.8,-,N/A,,Overcast,40,2013-04-18 10:57:00
6:00 AM,37.4,37.4,100,29.65,2.5,NNE,6.9,-,N/A,,Overcast,30,2013-04-18 11:00:00
6:03 AM,37.4,37.4,100,29.66,3.0,NNE,6.9,-,N/A,,Overcast,30,2013-04-18 11:03:00
6:12 AM,37.4,37.4,100,29.66,2.5,NNE,5.8,-,N/A,Rain,Rain,20,2013-04-18 11:12:00
6:23 AM,37.4,37.4,100,29.67,2.0,NNE,5.8,-,N/A,Rain,Rain,20,2013-04-18 11:23:00
6:41 AM,37.4,37.4,100,29.68,2.5,North,4.6,-,N/A,Rain,Light Rain,350,2013-04-18 11:41:00
6:50 AM,37.4,37.4,100,29.69,3.0,North,4.6,-,N/A,,Overcast,350,2013-04-18 11:50:00
6:55 AM,37.4,37.4,100,29.69,2.0,North,4.6,-,N/A,Rain,Light Rain,350,2013-04-18 11:55:00
7:36 AM,37.4,37.4,100,29.66,3.0,North,4.6,-,N/A,,Light Drizzle,10,2013-04-18 12:36:00
7:55 AM,37.4,37.4,100,29.68,4.0,NNE,4.6,-,N/A,,Light Drizzle,20,2013-04-18 12:55:00
8:24 AM,37.4,37.4,100,29.65,3.0,NNE,4.6,-,N/A,,Light Drizzle,20,2013-04-18 13:24:00
8:45 AM,37.4,37.4,100,29.66,4.0,NW,9.2,-,N/A,Rain,Light Rain,310,2013-04-18 13:45:00
8:55 AM,37.4,37.4,100,29.68,6.0,NNW,6.9,-,N/A,Rain,Light Rain,330,2013-04-18 13:55:00
9:17 AM,39.2,37.4,93,29.57,7.0,ENE,13.8,-,N/A,,Light Drizzle,70,2013-04-18 14:17:00
9:40 AM,39.2,39.2,100,29.53,10.0,ENE,6.9,18.4,N/A,,Overcast,60,2013-04-18 14:40:00
9:55 AM,39.2,39.2,100,29.57,10.0,ENE,6.9,-,N/A,,Overcast,70,2013-04-18 14:55:00
10:37 AM,39.2,39.2,100,29.59,10.0,Calm,Calm,-,N/A,,Overcast,0,2013-04-18 15:37:00
10:55 AM,39.2,39.2,100,29.58,10.0,North,4.6,-,N/A,,Overcast,360,2013-04-18 15:55:00
11:55 AM,39.2,39.2,100,29.59,10.0,NNE,5.8,-,N/A,,Overcast,20,2013-04-18 16:55:00
12:55 PM,41.0,39.2,93,29.55,10.0,NNE,4.6,-,N/A,,Overcast,30,2013-04-18 17:55:00
1:02 PM,41.0,39.2,93,29.55,10.0,NNE,5.8,-,N/A,,Overcast,20,2013-04-18 18:02:00
1:14 PM,41.0,39.2,93,29.51,3.0,NE,5.8,-,N/A,,Light Drizzle,40,2013-04-18 18:14:00
1:55 PM,41.0,41.0,100,29.53,3.0,ENE,8.1,-,N/A,,Overcast,60,2013-04-18 18:55:00
2:31 PM,41.0,41.0,100,29.48,2.5,ENE,8.1,-,N/A,,Overcast,60,2013-04-18 19:31:00
2:55 PM,41.0,41.0,100,29.54,10.0,ENE,8.1,-,N/A,,Overcast,60,2013-04-18 19:55:00
3:35 PM,41.0,41.0,100,29.43,1.2,ENE,6.9,-,N/A,Rain-Thunderstorm,Light Thunderstorms and Rain,70,2013-04-18 20:35:00
3:55 PM,41.0,41.0,100,29.44,3.0,ENE,8.1,-,N/A,,Light Drizzle,70,2013-04-18 20:55:00
4:55 PM,41.0,41.0,100,29.39,1.5,East,12.7,-,N/A,,Light Drizzle,80,2013-04-18 21:55:00
5:55 PM,41.0,41.0,100,29.34,2.0,East,10.4,-,N/A,,Light Drizzle,90,2013-04-18 22:55:00
6:55 PM,41.0,41.0,100,29.30,6.0,East,3.5,-,N/A,,Overcast,90,2013-04-18 23:55:00
7:55 PM,41.0,41.0,100,29.32,2.0,West,4.6,-,N/A,,Light Drizzle,280,2013-04-19 00:55:00
8:55 PM,41.0,41.0,100,29.36,3.0,WSW,10.4,-,N/A,,Light Drizzle,250,2013-04-19 01:55:00
9:41 PM,39.2,39.2,100,29.35,7.0,WSW,12.7,-,N/A,,Light Drizzle,240,2013-04-19 02:41:00
9:55 PM,39.2,39.2,100,29.37,7.0,SW,8.1,-,N/A,,Light Drizzle,230,2013-04-19 02:55:00
10:55 PM,39.2,37.4,93,29.35,10.0,SW,10.4,18.4,N/A,,Overcast,230,2013-04-19 03:55:00
11:13 PM,37.4,35.6,93,29.34,10.0,WSW,15.0,-,N/A,Rain,Light Rain,240,2013-04-19 04:13:00
11:16 PM,37.4,35.6,93,29.34,10.0,WSW,11.5,-,N/A,Rain,Light Rain,240,2013-04-19 04:16:00
11:29 PM,37.4,35.6,93,29.34,10.0,WSW,17.3,-,N/A,Rain,Light Rain,240,2013-04-19 04:29:00
11:30 PM,37.4,35.6,93,29.34,10.0,WSW,17.3,-,N/A,,Overcast,240,2013-04-19 04:30:00
11:45 PM,37.4,35.6,93,29.34,10.0,SW,16.1,24.2,N/A,Rain,Light Rain,230,2013-04-19 04:45:00
11:49 PM,37.4,35.6,93,29.34,10.0,WSW,15.0,24.2,N/A,,Light Drizzle,240,2013-04-19 04:49:00
11:55 PM,36.3,34.5,93,29.34,10.0,SW,12.7,-,0.00,,Light Drizzle,230,2013-04-19 04:55:00
11:58 PM,35.6,33.8,93,29.34,10.0,SW,10.4,-,N/A,,Mostly Cloudy,230,2013-04-19 04:58:00